The 790 - 1800 metre wide asteroid 2005 QY151 will make a close pass (77.7 lunar distances, 0.1996 AU), travelling at 16.02 km/second, to the Earth-Moon system on the 16th November, 2010 @ 00:36 UT. See more The Lunar Dis...
Orbital elements: 2010 OE22 Earth MOID = 0.1772 AU Epoch 2010 July 23.0 TT = JDT 2455400.5 MPC M 8.47276 (2000.0) P Q n 0.25627280 Peri. 79.18302 -0.24271704 +0.96999762 a 2.4547148 Node 176.67212 -0.95703070 -0.23708049 e 0.5964063 Incl. 13.84805 -0.15868419 -0.05382797 P 3.85 H 21.5 G 0.15 U 9 [u...
The total eclipse of June 16, 885 was observed in northern Scotland and Orkney. The eclipse lasted for almost 5 minutes, the same will be true for the Scottish total eclipse of 22 July 2381.
Dunadd, (Scottish Gaelic Dùn Add, 'fort on the [River] Add', is an Iron Age and later hillfort near Kilmartin in Argyll and Bute, Scotland and believed to be the capital of the ancient kingdom of Dál Riata Read more
Centro Stefano Franscini Monte Verita Ascona, Switzerland 25 - 30 July 2010 The conference will be devoted to various aspects of string theory, in particular relating to quantum gravity. Another focal topic will be the AdS/CFT correspondence. [url=http://www.conferences.itp.phys.ethz.ch...
In an important milestone, New Mexico Tech's largest, world-class telescope is in full operation, and running on funds from the university and research awards rather than federal construction money. The Magdalena Ridge Observatory's 2.4-meter telescope officially moved from the constructi...
European Planetary Science Congress 2010 Angelicum Centre - Pontifical University of Saint Thomas Aquinas 19 - 24 September 2010, Rome, Italy The intention of the European Planetary Science Congress 2010 is to cover a broad area of science topics related to planetary science and planetary missi...
Orbital elements: 2010 OP1 Earth MOID = 0.2462 AU Epoch 2010 July 23.0 TT = JDT 2455400.5 MPC M 346.58028 (2000.0) P Q n 0.19181800 Peri. 254.64579 +0.88604867 -0.38408524 a 2.9776694 Node 127.22806 +0.43763572 +0.87773865 e 0.6486081 Incl. 19.02889 -0.15294684 +0.28644964 P 5.14 H 18.9 G 0.15 U 8...
Orbital elements: 2010 OR1 Epoch 2010 July 23.0 TT = JDT 2455400.5 MPC M 0.06071 (2000.0) P Q n 0.00575712 Peri. 139.66407 +0.91874594 +0.08758997 a 30.8318063 Node 139.20217 -0.24544778 -0.63710820 e 0.9333605 Incl. 143.89616 +0.30929157 -0.76578139 P 171.20 H 15.9 G 0.15 U 7 [url=http://www....
Title: The High-Order-Multiplicity of Unusually Wide M-dwarf Binaries: Eleven New Triple and Quadruple Systems Authors: Nicholas M. Law, Saurav Dhital, Adam L. Kraus, Keivan G. Stassun, Andrew A. West M-dwarfs in extremely wide binary systems are very rare, and may thus have different formati...
Orbital elements: 2010 OA1 Earth MOID = 0.0023 AU Epoch 2010 July 23.0 TT = JDT 2455400.5 MPC M 350.40695 (2000.0) P Q n 0.42482771 Peri. 209.22104 +0.85045725 +0.51254250 a 1.7525113 Node 119.47327 -0.45236214 +0.82746215 e 0.4409650 Incl. 7.81762 -0.26849760 +0.22936123 P 2.32 H 23.3 G 0.15 U 7 [...
The installations of the Higher Technical School of Engineering (ETSI) in Bilbao hosted the inauguration of the new astronomical observatory, which will be the most powerful telescope amongst those installed in the Basque Country to date. The Astronomical Observatory will continue to incorpo...
A magnitude 16.6 Type Ia supernova, 2010gn, was discovered by Vinko et al at the Palomar Transient Factory on the 27th June, 2010, in an anonymous galaxy near NGC 6339 in the constellation Hercules. The supernova is located 2.4" West and 0.6" South from the center of the galaxy. Position (...